Wind_Speed
10 10 10 10 10 10 10 9 10 10 10 10 11 10 10 10 10 10 10 10 9 10 10 10 10 11 12 12 13 12 12 13 13 13 14 13 12 12 12 12 11 12 12
9 9 9 9 9 10 10 10 10 10 10 10 10 10 10 9 9 10 10 10 10 10 11 11 11 12 12 12 12 13 13 13 13 13 13 13 12 12 12 11 12 12 11
9 8 8 9 9 9 9 9 9 10 10 10 10 10 10 10 10 10 10 11 11 11 11 11 11 12 12 12 13 13 13 12 12 12 12 12 12 12 12 12 12 12 12
9 9 8 8 8 9 8 9 10 10 10 10 10 11 10 11 11 11 11 11 12 12 11 11 11 11 11 11 12 12 12 13 12 12 13 12 12 12 12 12 13 12 12
9 8 8 8 8 8 8 9 9 10 10 10 10 10 10 11 11 12 12 11 11 11 10 10 11 11 11 11 11 11 12 12 13 13 13 13 12 12 13 12 13 13 13
8 8 8 8 8 8 8 9 9 9 9 9 9 9 10 11 11 11 11 11 10 10 10 10 11 11 11 11 11 11 11 12 13 13 13 13 13 13 13 13 13 13 13
8 8 8 8 8 8 9 9 9 9 9 9 9 9 10 10 10 10 10 10 10 10 10 11 11 11 11 11 11 11 11 10 12 12 13 13 13 14 14 14 13 13 12
7 7 7 8 8 8 8 8 8 8 8 9 9 9 9 10 10 9 9 10 10 10 11 11 11 11 12 12 11 11 11 11 11 11 12 13 13 13 14 14 13 13 14
7 7 7 7 8 8 8 8 8 7 8 8 8 8 9 9 9 9 9 9 9 9 10 12 11 11 12 11 11 11 11 11 11 12 12 12 12 12 12 13 13 13 13
7 7 7 8 8 8 8 8 8 7 8 8 9 9 9 9 8 9 9 9 9 9 10 10 10 11 10 10 10 10 11 11 11 11 12 12 12 12 12 13 13 13 13
7 7 7 8 8 8 8 8 8 8 8 8 8 8 9 9 9 10 10 9 9 9 9 9 9 9 10 10 10 10 11 11 11 11 11 12 12 11 11 12 13 13 13
8 8 8 8 8 8 8 8 8 8 9 9 8 8 9 9 10 9 10 10 9 9 9 9 9 9 10 10 10 10 11 11 11 11 12 12 12 13 12 12 12 12 12
8 8 8 8 9 8 9 9 9 9 9 9 9 9 9 9 9 9 9 10 10 10 10 9 9 9 9 9 9 10 10 11 12 12 12 13 13 13 12 12 13 12 12
9 8 8 8 8 9 9 9 10 10 10 10 9 9 8 8 9 8 9 9 9 10 10 10 10 9 9 9 9 10 11 11 12 12 12 12 13 13 13 13 13 13 14
10 10 9 9 9 9 10 10 10 10 10 10 10 9 8 7 8 8 8 9 10 10 10 9 10 10 10 10 10 11 12 12 12 12 12 11 11 11 12 13 13 13 14
12 11 11 11 10 10 10 10 10 10 10 9 9 9 8 8 8 8 8 9 10 10 10 10 9 10 10 11 11 11 12 11 11 11 11 11 11 12 13 13 13 14 15
13 12 11 11 11 11 11 11 10 10 10 10 9 9 9 9 9 9 9 10 10 10 9 10 10 11 11 11 11 11 12 12 11 12 12 13 13 14 14 14 14 15 15
14 13 13 13 12 12 12 11 10 10 10 10 9 9 9 9 10 10 10 10 10 10 11 11 12 12 12 12 12 12 13 13 13 13 14 15 15 15 15 15 16 16 17
14 14 14 14 13 13 12 12 12 12 11 11 11 10 10 10 10 10 11 11 12 12 13 13 13 13 13 13 12 13 13 13 13 14 15 15 16 16 17 18 18 18 18
15 15 14 14 14 13 13 13 12 12 12 12 12 11 11 11 11 12 12 13 13 13 14 14 14 14 13 14 14 14 13 14 14 14 15 16 17 17 17 18 19 19 19
16 16 15 15 14 14 14 14 13 12 12 12 12 12 13 13 13 13 14 14 14 15 15 15 15 15 15 15 15 15 14 15 15 16 16 17 17 18 19 19 20 20 21
17 17 16 15 15 15 15 15 14 14 14 13 13 13 13 14 14 15 15 16 16 16 16 16 16 16 17 17 16 16 16 16 17 18 18 19 19 20 20 20 21 22 22
18 18 18 17 17 16 16 16 15 15 15 15 15 15 15 16 16 16 17 17 18 19 19 19 18 18 19 19 19 19 18 18 18 19 20 20 21 22 22 22 22 23 22
20 19 19 19 18 18 17 17 17 17 17 17 17 17 18 18 18 18 19 19 19 19 20 20 20 20 21 21 21 21 21 21 21 22 22 22 22 24 24 24 24 24 24
21 20 20 19 19 19 19 19 19 19 19 19 19 20 20 20 21 21 21 21 22 21 21 22 22 23 23 23 23 23 22 23 23 24 24 24 24 25 25 25 26 25 26
22 22 22 21 20 21 21 21 21 21 21 21 21 22 22 22 23 23 23 23 24 24 24 24 24 24 25 25 25 25 25 25 25 25 26 26 27 26 26 27 27 28 29
Wind_Direction
293 291 287 283 284 285 284 279 278 276 275 276 278 275 266 260 263 267 266 267 261 254 252 256 263 267 267 269 271 272 275 277 276 274 271 271 271 269 269 270 274 277 281
294 291 285 282 281 282 282 281 278 278 278 276 277 276 277 271 269 271 268 267 265 261 261 264 266 269 270 269 270 273 274 277 278 275 271 269 268 269 270 270 274 279 279
291 290 285 283 282 281 280 280 279 279 278 276 275 277 277 279 276 276 274 273 270 269 269 270 269 272 271 272 273 275 274 274 276 274 271 269 268 268 269 271 273 274 276
288 286 286 286 287 281 278 279 281 279 279 278 273 272 273 273 276 276 277 277 273 274 274 273 273 276 274 275 276 276 275 273 273 273 271 270 270 268 268 271 273 274 277
289 286 287 285 285 285 282 281 282 278 278 278 274 271 273 273 275 275 277 275 274 273 272 273 275 277 279 279 280 279 277 276 274 273 271 270 270 269 269 268 271 273 277
290 287 284 284 285 283 284 283 282 279 280 277 274 272 275 278 279 279 277 273 273 273 270 272 276 278 278 278 279 284 284 279 278 277 274 272 270 269 269 271 273 274 277
292 290 288 285 287 286 286 284 281 278 278 275 275 277 277 279 282 282 280 279 277 276 274 273 277 276 275 277 278 280 284 284 282 283 279 275 273 271 270 273 276 275 275
294 295 291 286 287 290 291 289 286 282 281 274 274 277 278 278 280 282 280 277 280 279 276 277 277 276 276 275 275 276 282 284 283 281 282 280 280 277 275 277 280 277 274
293 294 294 294 294 294 295 295 289 285 283 280 279 283 284 281 279 283 282 281 282 280 277 277 277 279 277 276 273 274 277 278 281 283 283 283 283 283 284 283 283 280 278
293 293 293 293 293 294 296 297 293 289 285 283 284 286 285 283 280 285 286 288 285 283 283 281 283 280 278 276 275 275 275 279 281 282 284 285 284 286 290 285 281 280 277
297 293 294 292 292 293 295 298 295 294 289 286 287 288 286 282 282 285 286 290 290 289 287 286 288 285 281 278 277 278 278 279 278 280 284 287 285 284 291 287 282 277 275
299 296 295 293 294 294 294 296 295 296 294 289 285 287 285 284 286 287 286 287 290 291 293 296 292 288 286 282 281 280 281 281 282 284 286 288 287 286 287 288 286 280 276
299 298 297 299 296 293 294 295 292 294 294 291 288 288 287 287 288 290 289 288 291 294 294 296 295 290 291 290 290 288 284 285 285 287 287 287 287 285 284 283 283 280 278
298 295 297 299 297 293 293 294 292 291 292 288 286 286 288 290 290 291 292 291 294 296 295 296 293 294 297 295 290 289 287 286 286 286 287 287 285 282 281 286 284 279 278
293 290 292 297 296 295 294 293 292 291 291 287 283 283 285 290 292 294 291 291 294 297 298 298 295 298 296 294 287 287 289 289 287 284 285 286 287 286 286 287 285 283 281
290 288 289 290 291 293 295 294 295 294 293 290 285 281 282 285 289 292 291 294 297 298 295 296 301 301 299 299 294 293 292 289 285 284 286 284 285 289 290 285 287 287 287
288 285 286 287 289 290 290 291 291 295 294 290 285 283 283 282 285 289 293 297 299 299 298 299 302 303 300 300 301 299 296 291 285 284 285 284 288 291 289 287 287 288 290
285 282 283 285 287 289 289 289 287 291 292 289 286 285 284 284 286 288 293 297 299 299 301 301 301 301 299 298 297 297 300 295 288 284 283 282 287 293 289 289 288 289 291
280 279 280 282 285 286 288 288 286 285 288 286 282 281 282 285 287 289 291 293 294 296 298 298 300 300 297 296 299 297 297 299 295 288 285 285 287 290 289 291 292 291 291
276 277 278 279 280 281 284 287 289 287 286 284 280 279 282 285 284 284 287 290 291 294 295 295 298 298 296 296 297 297 295 296 295 292 290 288 287 289 289 289 292 291 291
273 274 275 276 276 277 278 282 285 285 284 284 281 278 280 283 283 284 285 287 289 291 291 291 294 293 293 294 293 293 292 294 293 293 294 293 292 290 292 293 293 292 292
272 273 273 274 274 275 276 278 280 280 281 281 279 279 280 282 284 283 283 285 287 289 288 288 290 292 292 291 289 288 289 291 292 292 291 293 293 291 292 293 292 292 292
272 274 274 272 272 271 273 272 276 281 280 279 278 278 279 281 282 283 284 287 286 286 286 285 287 289 289 289 288 288 288 290 293 295 294 293 293 293 293 293 293 293 292
271 271 272 272 271 270 271 271 274 276 278 278 278 278 280 282 281 281 282 285 286 286 287 287 286 287 288 289 288 288 288 288 289 292 293 293 292 293 293 292 293 293 292
269 269 269 269 270 269 269 270 272 274 276 278 279 280 280 281 281 280 281 282 283 284 285 287 288 287 288 289 290 289 288 288 289 290 291 291 291 292 292 292 292 292 291
267 269 269 270 270 270 269 270 271 272 274 277 278 280 280 280 280 280 281 282 282 282 284 285 287 287 288 288 289 290 288 287 287 288 289 289 290 289 290 290 291 291 290
Height
5845 5845 5845 5845 5845 5845 5845 5845 5846 5846 5846 5846 5846 5847 5847 5847 5847 5847 5848 5847 5847 5848 5850 5851 5852 5852 5853 5853 5854 5854 5855 5855 5855 5855 5855 5855 5855 5856 5856 5856 5856 5856 5856
5843 5843 5843 5843 5843 5843 5843 5843 5844 5844 5844 5844 5844 5844 5844 5845 5845 5846 5846 5846 5847 5848 5848 5849 5850 5850 5850 5851 5851 5851 5852 5852 5852 5852 5852 5852 5853 5853 5853 5853 5853 5853 5853
5841 5841 5841 5841 5841 5841 5841 5841 5842 5842 5842 5842 5842 5843 5843 5843 5844 5844 5844 5845 5845 5846 5846 5847 5847 5848 5848 5848 5848 5849 5849 5849 5849 5849 5849 5849 5850 5850 5850 5850 5850 5851 5851
5840 5839 5840 5840 5840 5839 5839 5840 5840 5840 5840 5840 5841 5841 5841 5841 5842 5842 5842 5843 5843 5844 5844 5844 5845 5845 5845 5845 5846 5846 5846 5846 5846 5846 5847 5847 5847 5847 5847 5847 5847 5848 5848
5838 5838 5838 5838 5838 5838 5838 5838 5838 5838 5838 5838 5839 5839 5839 5839 5839 5840 5840 5840 5841 5841 5841 5842 5842 5843 5843 5843 5843 5843 5843 5843 5844 5844 5844 5844 5844 5844 5844 5844 5845 5845 5845
5836 5836 5836 5836 5836 5836 5836 5836 5836 5836 5836 5836 5837 5837 5837 5837 5837 5837 5837 5838 5838 5839 5839 5840 5840 5840 5840 5840 5840 5840 5840 5840 5840 5840 5840 5840 5841 5841 5841 5841 5842 5842 5842
5834 5834 5834 5834 5834 5834 5834 5834 5834 5834 5834 5834 5835 5835 5835 5835 5835 5835 5835 5835 5836 5836 5836 5837 5837 5837 5837 5837 5838 5838 5838 5837 5837 5837 5837 5837 5837 5837 5838 5838 5838 5838 5838
5833 5833 5833 5833 5833 5833 5833 5833 5832 5833 5833 5833 5833 5833 5833 5834 5833 5833 5833 5833 5834 5834 5834 5834 5834 5835 5835 5835 5835 5835 5835 5835 5834 5834 5834 5834 5834 5834 5834 5834 5834 5834 5834
5832 5832 5832 5832 5832 5831 5831 5831 5831 5831 5831 5831 5831 5831 5831 5831 5831 5831 5831 5831 5831 5831 5831 5831 5832 5832 5832 5832 5832 5832 5832 5832 5832 5831 5831 5831 5831 5831 5831 5831 5830 5830 5830
5831 5830 5830 5830 5830 5830 5830 5829 5829 5829 5829 5829 5829 5829 5829 5829 5829 5829 5830 5829 5829 5829 5829 5829 5829 5829 5829 5829 5829 5829 5829 5829 5829 5829 5828 5828 5828 5827 5827 5826 5826 5826 5827
5829 5829 5829 5829 5828 5828 5828 5828 5828 5827 5827 5827 5827 5827 5827 5827 5827 5827 5827 5827 5827 5827 5827 5827 5827 5827 5826 5826 5826 5826 5826 5826 5826 5826 5826 5825 5824 5824 5823 5823 5822 5822 5822
5828 5828 5827 5827 5827 5826 5826 5826 5826 5826 5825 5825 5825 5825 5825 5825 5825 5825 5825 5825 5825 5825 5824 5824 5824 5824 5824 5824 5823 5823 5823 5823 5823 5823 5823 5822 5822 5821 5820 5820 5819 5819 5819
5826 5826 5826 5825 5825 5825 5825 5824 5824 5824 5823 5823 5823 5823 5823 5822 5822 5822 5822 5822 5822 5822 5822 5822 5822 5822 5821 5821 5821 5820 5820 5820 5820 5820 5820 5819 5819 5818 5817 5817 5817 5816 5816
5825 5824 5824 5824 5824 5823 5823 5822 5822 5822 5821 5821 5821 5821 5820 5820 5820 5820 5820 5820 5820 5820 5820 5820 5819 5819 5818 5818 5818 5818 5817 5817 5817 5817 5817 5816 5815 5815 5814 5814 5813 5813 5812
5823 5823 5822 5822 5822 5821 5821 5820 5820 5819 5819 5819 5819 5819 5818 5818 5818 5818 5818 5818 5819 5818 5818 5817 5817 5816 5816 5815 5815 5815 5814 5814 5814 5813 5813 5813 5812 5812 5811 5811 5810 5809 5809
5821 5820 5820 5820 5819 5819 5818 5818 5817 5817 5817 5816 5816 5816 5816 5816 5816 5816 5816 5816 5816 5816 5815 5815 5814 5814 5813 5812 5812 5811 5811 5810 5810 5810 5810 5809 5809 5809 5808 5807 5807 5806 5805
5818 5818 5818 5817 5817 5816 5816 5816 5815 5815 5815 5814 5814 5814 5814 5814 5814 5814 5814 5814 5813 5813 5812 5812 5811 5811 5810 5810 5809 5808 5808 5807 5806 5806 5806 5806 5805 5805 5804 5804 5803 5802 5801
5815 5815 5815 5815 5814 5814 5814 5813 5813 5813 5812 5812 5812 5812 5812 5812 5812 5812 5812 5811 5811 5810 5810 5809 5809 5808 5807 5807 5806 5805 5804 5803 5803 5802 5802 5801 5801 5801 5800 5799 5799 5798 5797
5811 5811 5811 5811 5811 5811 5811 5810 5810 5810 5810 5810 5809 5809 5809 5809 5809 5809 5809 5808 5808 5807 5807 5806 5806 5805 5804 5803 5802 5802 5801 5800 5799 5798 5798 5797 5797 5796 5796 5795 5794 5793 5792
5807 5808 5808 5808 5808 5808 5808 5808 5807 5807 5807 5806 5806 5806 5806 5806 5806 5806 5805 5805 5805 5804 5803 5803 5802 5801 5800 5799 5799 5798 5797 5796 5795 5794 5793 5793 5792 5791 5791 5790 5789 5788 5787
5803 5803 5804 5804 5804 5804 5804 5804 5804 5804 5803 5803 5803 5803 5803 5803 5803 5802 5802 5801 5801 5800 5800 5799 5798 5797 5796 5796 5795 5794 5793 5792 5791 5790 5789 5788 5787 5786 5786 5784 5783 5782 5780
5798 5799 5799 5799 5800 5800 5800 5800 5800 5800 5800 5799 5799 5799 5799 5799 5798 5798 5798 5797 5797 5796 5795 5795 5794 5793 5792 5791 5790 5789 5788 5787 5786 5785 5784 5783 5782 5781 5780 5779 5777 5776 5774
5793 5794 5794 5795 5795 5795 5795 5796 5796 5796 5796 5795 5795 5795 5795 5794 5794 5794 5793 5793 5792 5791 5791 5790 5789 5788 5787 5786 5785 5784 5783 5782 5781 5780 5779 5777 5776 5775 5774 5772 5770 5769 5768
5788 5789 5789 5789 5790 5790 5791 5791 5791 5791 5791 5791 5790 5790 5790 5789 5789 5789 5788 5788 5787 5786 5785 5784 5783 5782 5782 5781 5780 5779 5777 5776 5775 5774 5772 5771 5770 5768 5767 5765 5763 5762 5760
5782 5783 5784 5784 5785 5785 5785 5786 5786 5786 5786 5785 5785 5784 5784 5784 5783 5783 5782 5782 5781 5780 5779 5778 5777 5776 5775 5774 5773 5772 5771 5770 5769 5767 5766 5764 5763 5761 5759 5757 5756 5754 5753
5775 5776 5777 5778 5778 5779 5779 5780 5780 5780 5780 5779 5779 5778 5778 5777 5777 5776 5776 5775 5775 5774 5773 5772 5771 5770 5769 5767 5766 5765 5764 5763 5761 5760 5758 5757 5755 5753 5752 5750 5748 5746 5744